Lid_Strength_Index
4 4 4 3 2 1 1 -1 -1 -1 -1 -1 -1 -1 -1 -1 -1 4 7 5 7 10 9 8 8 9 9 9 10 10 9 10 11 14 16 17 18 16 17 15 15 15 16 16 20 19 19 17 13 14 16 17 17 18
3 4 4 4 3 2 2 2 1 -0 -0 -1 -1 -1 -1 -1 -1 3 7 5 5 8 9 7 9 7 8 9 11 12 12 12 10 13 15 16 19 17 16 19 14 16 15 17 16 16 18 18 18 18 17 17 19 19
4 3 4 5 5 4 3 2 3 2 1 0 -0 -1 -1 -1 -1 3 8 7 7 9 10 9 10 8 7 9 7 11 11 8 10 9 13 15 16 15 19 18 15 15 14 15 16 18 20 20 19 18 19 19 19 19
4 4 4 4 5 5 5 4 3 3 3 2 1 1 -0 -1 1 3 7 7 6 10 12 12 8 10 9 7 7 7 8 9 9 10 14 15 15 13 16 15 15 17 15 18 20 20 20 20 20 19 20 20 20 20
5 5 5 4 4 5 5 5 4 4 4 3 1 1 1 1 3 6 8 8 7 8 16 15 10 10 10 8 8 8 9 10 11 13 15 16 15 16 17 16 20 23 18 16 17 18 18 20 20 20 21 22 22 22
5 5 5 5 5 5 5 5 5 5 4 3 2 2 2 3 3 6 9 7 8 8 11 15 12 13 12 10 10 10 10 11 13 14 15 15 15 16 22 23 23 22 21 21 20 20 21 21 21 21 22 23 22 23
5 5 5 5 5 5 5 4 4 4 5 4 2 3 3 5 8 10 10 10 8 8 12 15 16 13 14 12 11 11 11 13 13 15 16 17 17 18 24 23 23 23 22 22 21 21 23 22 23 23 23 23 23 23
5 6 6 5 6 6 5 4 4 4 4 5 4 4 4 5 8 12 10 10 9 10 12 16 17 15 15 15 14 13 13 13 14 17 18 21 20 23 23 25 24 24 23 24 25 24 24 23 23 24 23 24 25 24
5 6 6 5 6 6 5 4 4 4 4 4 4 4 11 14 15 14 8 11 15 14 19 20 20 18 18 17 15 14 13 16 14 19 18 19 24 24 24 25 26 26 26 26 28 29 28 28 28 28 27 27 27 25
5 6 6 5 5 6 6 5 4 5 4 3 11 15 18 17 9 10 17 18 20 23 23 26 26 23 20 19 19 18 17 18 22 22 18 24 24 27 27 28 25 27 28 28 30 31 34 33 33 32 32 33 31 30
6 6 6 6 5 6 6 6 5 7 7 15 20 19 15 10 16 22 24 22 26 25 27 30 28 26 21 23 25 18 23 22 25 23 23 29 24 23 28 28 29 28 30 34 33 35 34 32 32 34 34 35 35 34
6 6 7 6 6 6 6 6 7 15 20 16 16 17 19 20 22 21 31 28 27 26 30 28 27 26 25 20 23 23 24 24 25 26 25 28 23 29 30 31 31 31 32 34 35 34 36 34 35 34 34 34 34 34
6 6 8 7 6 6 6 7 8 9 12 19 19 21 19 23 21 25 26 27 28 34 34 33 28 27 25 22 27 26 26 27 26 27 26 24 26 29 32 33 34 36 36 35 35 35 35 34 34 32 30 32 34 35
6 7 9 8 7 7 7 8 9 13 19 22 24 23 27 28 30 32 31 32 30 30 34 32 33 28 32 26 28 27 27 27 31 30 27 27 27 29 30 32 32 33 35 32 31 33 32 30 28 30 30 31 32 32
7 8 10 9 7 7 8 9 12 23 24 26 25 27 31 35 38 40 42 37 33 33 31 32 32 23 31 28 29 29 28 30 27 24 25 25 28 27 28 30 30 30 31 32 33 30 28 29 29 30 31 33 33 35
8 13 14 9 8 8 10 18 24 27 31 30 32 32 39 35 35 39 41 37 35 29 33 31 35 30 31 31 28 29 29 27 24 27 27 31 32 30 31 30 29 30 30 31 30 29 28 29 29 30 34 36 36 38
12 19 10 10 9 12 13 24 25 32 31 31 33 44 36 37 31 36 38 35 31 32 31 35 29 28 30 32 29 30 27 25 25 28 33 31 28 28 31 31 32 32 31 28 28 29 30 33 36 36 33 34 39 39
19 16 11 10 12 19 26 28 28 29 33 36 30 35 40 39 38 40 41 37 33 35 35 29 28 31 31 30 30 26 27 32 34 33 31 32 34 34 30 29 31 29 29 30 32 36 38 38 36 32 37 38 39 38
13 15 11 12 15 26 25 25 26 28 35 39 36 35 39 41 40 40 41 40 39 37 32 35 32 31 28 28 27 30 35 31 28 28 31 34 32 32 32 32 28 32 34 36 38 35 35 35 35 35 36 37 35 37
12 13 13 15 16 23 26 27 27 27 30 30 36 36 35 35 38 45 44 41 38 38 33 32 28 28 27 28 29 29 29 29 29 32 31 31 34 34 30 30 30 32 35 41 41 38 39 36 38 37 37 36 37 35
17 17 16 20 24 27 27 28 28 32 33 31 35 32 33 34 36 37 36 39 35 32 30 30 33 33 39 39 38 38 33 30 28 25 26 31 33 31 33 32 33 35 32 32 32 33 32 31 33 37 37 37 40 39
21 16 22 20 24 28 29 29 27 30 30 35 32 32 33 33 34 36 36 33 30 27 29 30 32 36 36 33 35 38 38 39 38 34 31 30 32 32 32 30 32 30 30 29 29 28 29 30 33 35 37 38 39 40
18 19 23 24 25 27 30 29 26 29 27 30 32 30 31 30 32 33 31 29 28 30 33 33 35 38 35 39 40 39 41 37 35 36 35 34 34 32 31 28 27 26 27 28 29 29 30 28 29 30 32 36 39 39
18 24 23 25 27 30 31 28 27 27 28 29 29 29 31 31 33 30 27 25 26 32 32 32 35 34 35 35 33 33 35 37 38 36 36 31 30 30 32 29 27 26 26 28 27 29 29 29 28 30 32 35 40 41
21 23 25 28 29 27 26 29 27 27 28 29 28 29 31 33 27 28 26 22 25 26 28 34 35 34 31 32 32 37 41 34 32 30 33 30 30 30 31 29 28 26 26 27 28 27 29 31 30 31 34 37 38 39
23 25 28 29 27 25 25 28 27 26 26 27 28 31 31 26 26 24 24 24 25 26 29 30 30 33 33 31 33 34 33 37 36 33 31 27 25 27 27 27 25 24 25 24 24 27 28 29 31 33 35 35 36 39
23 24 27 29 26 25 26 27 27 26 26 25 28 28 25 24 25 23 26 27 26 29 30 31 31 31 32 34 36 38 40 38 33 32 34 34 30 27 26 25 24 22 24 25 25 27 27 29 32 34 35 40 39 38
25 28 24 26 25 25 23 24 24 23 23 23 23 24 22 22 21 23 25 28 34 37 38 40 39 38 37 37 38 38 38 40 37 36 34 32 31 28 28 29 26 21 25 25 26 28 31 32 35 37 39 36 35 38
27 28 26 26 25 25 24 23 23 26 28 24 21 21 21 23 25 27 28 32 41 37 34 34 35 43 41 43 43 43 40 34 32 30 30 29 26 24 27 27 25 26 27 28 24 28 34 36 36 36 35 35 34 39
28 26 24 26 26 24 27 30 28 30 30 30 31 28 26 26 27 33 38 39 36 34 36 40 43 41 40 41 39 37 41 37 31 27 27 25 24 26 27 26 27 28 31 32 33 35 27 32 32 35 37 38 39 38
30 29 26 25 25 28 30 31 31 31 30 31 33 31 29 33 33 36 37 38 41 43 38 37 40 46 42 41 40 37 32 33 30 27 27 28 28 26 26 28 30 32 37 39 38 38 37 37 39 40 39 36 35 34
31 28 26 23 25 30 30 30 30 30 31 32 34 37 35 36 34 33 36 39 39 36 34 37 37 33 34 37 38 38 30 32 32 29 28 26 27 28 29 31 36 40 39 37 39 39 39 39 39 38 36 36 36 35
25 25 24 25 27 28 31 32 33 33 34 35 34 38 39 39 31 31 35 39 35 33 32 32 33 36 34 33 32 32 27 30 28 20 21 21 24 27 36 41 41 40 38 38 38 38 37 39 38 36 36 36 35 34